Regional Weather Roundup
Issued by NWS

Home | Current Version | Previous Version | Graphics & Text | Print | Product List | Glossary On
Versions: 1 2 3 4 5 6 7 8 9 10 11 12 13 14 15 16 17 18 19 20 21 22 23 24 25 26 27 28 29 30 31 32 33 34 35 36 37 38 39 40 41 42 43 44 45 46 47 48 49 50
000
ASUS43 KLMK 041210
RWRKY
KENTUCKY REGIONAL WEATHER ROUNDUP
NATIONAL WEATHER SERVICE LOUISVILLE KY
800 AM EDT MON MAY 04 2015

NOTE "FAIR" INDICATES FEW OR NO CLOUDS BELOW 12,000 FEET
WITH NO SIGNIFICANT WEATHER AND/OR OBSTRUCTIONS TO VISIBILITY.

KYZ001>023-026-027-061>063-070>075-041300-
WESTERN AND SOUTH CENTRAL KENTUCKY

CITY           SKY/WX    TMP DP  RH WIND       PRES   REMARKS
PADUCAH        MOSUNNY   65  52  62 SW7       30.14R
HENDERSON      PTSUNNY   63  48  59 S8        30.13R
OWENSBORO      PTSUNNY   61  53  74 S8        30.16R
HOPKINSVILLE   SUNNY     63  51  64 S7        30.18R
BOWLING GREEN  MOSUNNY   56  51  84 CALM      30.19R
GLASGOW        SUNNY     60  49  67 S3        30.20R
$$

KYZ024-025-028>034-038-045-046-053-041300-
NORTH CENTRAL KENTUCKY

CITY           SKY/WX    TMP DP  RH WIND       PRES   REMARKS
LOUISVILLE/SDF MOSUNNY   62  52  69 SE5       30.16R
LOUISVILLE/LOU SUNNY     62  51  67 S5        30.17R
FORT KNOX      PTSUNNY   58  51  78 S6        30.16R
$$

KYZ035>037-039>044-047>052-055>060-089>105-041300-
NORTHEAST KENTUCKY

CITY           SKY/WX    TMP DP  RH WIND       PRES   REMARKS
LEXINGTON      MOSUNNY   59  50  72 S8        30.19R
COVINGTON      PTSUNNY   60  50  69 S8        30.16
FRANKFORT      SUNNY     57  50  77 S5        30.17R
$$

KYZ054-064>069-076>088-106>120-041300-
SOUTHEAST KENTUCKY

CITY           SKY/WX    TMP DP  RH WIND       PRES   REMARKS
JACKSON        SUNNY     59  46  62 CALM      30.23R
LONDON         SUNNY     55  48  77 CALM      30.23R
SOMERSET       SUNNY     54  52  94 CALM      30.24R
MIDDLESBORO    SUNNY     48  47  95 CALM      30.28R
MONTICELLO     SUNNY     57  53  86 CALM      30.25R
$$




USA.gov is the U.S. government's official web portal to all federal, state and local government web resources and services.